West Memphis, AR

1:17 PM CDT on October 19, 2019 (GMT -0500)
West Memphis Municipal

Weather History for KAWM - September, 2019

Change the Weather History Date:

Saturday, September 21, 2019

  Actual Average Record
Temperature  
Mean Temperature 78 °F -  
Max Temperature 91 °F 83 °F 97 °F (2010)
Min Temperature 66 °F 62 °F 45 °F (1991)
Cooling Degree Days 13    
Growing Degree Days 28 (Base 50)    
Moisture  
Dew Point 63 °F    
Average Humidity 64    
Maximum Humidity 90    
Minimum Humidity 37    
Precipitation  
Precipitation 0.00 in - - ()
Sea Level Pressure  
Sea Level Pressure 30.13 in    
Wind  
Wind Speed 8 mph (SSE)    
Max Wind Speed 15 mph    
Max Gust Speed 22 mph    
Visibility 10 miles    
Events      
Averages and records for this station are not official NWS values.
T = Trace of Precipitation, MM = Missing Value Source: NWS Daily Summary

Daily Weather History Graph

Daily Weather History Graph

Search for Another Location

Airport or City:

Astronomy

Sep. 21, 2019 Rise Set
Actual Time 6:48 AM CDT 6:59 PM CDT
Civil Twilight 6:22 AM CDT 7:24 PM CDT
Nautical Twilight 5:53 AM CDT 7:54 PM CDT
Astronomical Twilight 5:23 AM CDT 8:24 PM CDT
Moon 11:51 PM CDT (9/21) 1:40 PM CDT (9/21)
Length of Visible Light 13h 02m
Length of Day
12h 11m
Waning Gibbous, 54% of the Moon is Illuminated
Sep 21
Waning Gibbous
Sep 21
Last Quarter
Sep 28
New
Oct 5
First Quarter
Oct 13
Full

Hourly Weather History & Observations

Time (CDT) Temp. Heat Index Dew Point Humidity Pressure Visibility Wind Dir Wind Speed Gust Speed Precip Events Conditions
12:53 AM 73.0 °F - 66.0 °F 79% 30.12 in 10.0 mi SSE 9.2 mph - N/A   Clear
1:53 AM 73.9 °F - 64.9 °F 73% 30.12 in 10.0 mi South 8.1 mph - N/A   Clear
2:53 AM 70.0 °F - 64.9 °F 84% 30.12 in 10.0 mi SSE 6.9 mph - N/A   Clear
3:53 AM 70.0 °F - 64.9 °F 84% 30.13 in 10.0 mi South 3.5 mph - N/A   Clear
4:53 AM 69.1 °F - 64.9 °F 87% 30.14 in 10.0 mi SSE 4.6 mph - N/A   Clear
5:53 AM 66.9 °F - 64.0 °F 90% 30.16 in 10.0 mi South 3.5 mph - N/A   Clear
6:53 AM 66.9 °F - 64.0 °F 90% 30.17 in 10.0 mi South 5.8 mph - N/A   Unknown
7:53 AM 71.1 °F - 64.0 °F 78% 30.19 in 10.0 mi SSE 8.1 mph - N/A   Clear
8:53 AM 77.0 °F - 63.0 °F 62% 30.20 in 10.0 mi South 10.4 mph - N/A   Clear
9:53 AM 82.0 °F 83.4 °F 64.0 °F 54% 30.20 in 10.0 mi SSE 9.2 mph - N/A   Clear
10:53 AM 84.9 °F 85.9 °F 63.0 °F 48% 30.19 in 10.0 mi South 12.7 mph - N/A   Clear
11:53 AM 88.0 °F 88.7 °F 63.0 °F 43% 30.18 in 10.0 mi South 15.0 mph 21.9 mph N/A   Clear
12:53 PM 89.1 °F 89.3 °F 62.1 °F 40% 30.16 in 10.0 mi SSW 9.2 mph 19.6 mph N/A   Partly Cloudy
1:53 PM 90.0 °F 90.0 °F 61.0 °F 38% 30.13 in 10.0 mi South 13.8 mph - N/A   Scattered Clouds
2:53 PM 89.1 °F 88.8 °F 60.1 °F 38% 30.11 in 10.0 mi SSE 13.8 mph - N/A   Mostly Cloudy
3:53 PM 90.0 °F 89.7 °F 60.1 °F 37% 30.09 in 10.0 mi SSE 12.7 mph 20.7 mph N/A   Mostly Cloudy
4:53 PM 88.0 °F 87.9 °F 61.0 °F 40% 30.09 in 10.0 mi SSE 15.0 mph - N/A   Partly Cloudy
5:53 PM 87.1 °F 87.0 °F 61.0 °F 41% 30.08 in 10.0 mi SSE 12.7 mph - N/A   Clear
6:53 PM 81.0 °F 81.9 °F 62.1 °F 52% 30.08 in 10.0 mi SSE 6.9 mph - N/A   Clear
7:53 PM 75.0 °F - 64.0 °F 69% 30.08 in 10.0 mi SSE 4.6 mph - N/A   Clear
8:53 PM 73.9 °F - 64.0 °F 71% 30.09 in 10.0 mi SSE 3.5 mph - N/A   Clear
9:53 PM 73.0 °F - 64.0 °F 73% 30.09 in 10.0 mi SSE 4.6 mph - N/A   Clear
10:53 PM 71.1 °F - 64.0 °F 78% 30.09 in 10.0 mi SSE 8.1 mph - N/A   Clear
11:53 PM 71.1 °F - 63.0 °F 75% 30.09 in 10.0 mi SSE 5.8 mph - N/A   Clear